TimePDT,TemperatureF,Dew PointF,Humidity,Sea Level PressureIn,VisibilityMPH,Wind Direction,Wind SpeedMPH,Gust SpeedMPH,PrecipitationIn,Events,Conditions,WindDirDegrees,DateUTC
12:55 AM,41.0,28.0,60,29.96,10.0,Calm,Calm,-,N/A,,Clear,0,2013-04-30 07:55:00
1:55 AM,41.0,28.0,60,29.95,10.0,West,6.9,-,N/A,,Clear,280,2013-04-30 08:55:00
2:55 AM,41.0,28.0,60,29.94,10.0,West,9.2,-,N/A,,Clear,260,2013-04-30 09:55:00
3:55 AM,36.0,26.1,67,29.97,10.0,WNW,6.9,-,N/A,,Clear,290,2013-04-30 10:55:00
4:55 AM,35.1,26.1,70,29.99,10.0,West,6.9,-,N/A,,Clear,270,2013-04-30 11:55:00
5:55 AM,30.9,24.1,76,30.01,10.0,Calm,Calm,-,N/A,,Clear,0,2013-04-30 12:55:00
6:55 AM,36.0,25.0,64,30.03,10.0,Calm,Calm,-,N/A,,Clear,0,2013-04-30 13:55:00
7:55 AM,41.0,25.0,53,30.04,10.0,North,5.8,-,N/A,,Clear,360,2013-04-30 14:55:00
8:55 AM,44.1,21.9,42,30.05,10.0,North,5.8,-,N/A,,Clear,360,2013-04-30 15:55:00
9:55 AM,46.0,19.9,35,30.06,10.0,North,6.9,-,N/A,,Clear,350,2013-04-30 16:55:00
10:55 AM,51.1,1.9,13,30.06,10.0,North,9.2,-,N/A,,Clear,10,2013-04-30 17:55:00
11:55 AM,53.1,5.0,14,30.05,10.0,NNE,11.5,19.6,N/A,,Clear,20,2013-04-30 18:55:00
12:55 PM,54.0,6.1,15,30.05,10.0,North,6.9,21.9,N/A,,Clear,10,2013-04-30 19:55:00
2:55 PM,57.0,12.9,18,30.04,10.0,Variable,6.9,-,N/A,,Clear,0,2013-04-30 21:55:00
3:55 PM,59.0,6.1,12,30.04,10.0,NW,9.2,-,N/A,,Clear,320,2013-04-30 22:55:00
4:55 PM,60.1,10.0,14,30.04,10.0,NNW,8.1,-,N/A,,Clear,330,2013-04-30 23:55:00
5:55 PM,59.0,8.1,13,30.07,10.0,NNW,8.1,-,N/A,,Clear,340,2013-05-01 00:55:00
6:55 PM,55.9,9.0,15,30.09,10.0,NNE,9.2,-,N/A,,Clear,30,2013-05-01 01:55:00
7:55 PM,51.1,8.1,18,30.11,10.0,NNE,10.4,-,N/A,,Clear,20,2013-05-01 02:55:00
8:55 PM,46.9,8.1,21,30.14,10.0,NNE,10.4,-,N/A,,Clear,20,2013-05-01 03:55:00
9:55 PM,45.0,10.9,25,30.18,10.0,NE,6.9,-,N/A,,Clear,40,2013-05-01 04:55:00
10:55 PM,41.0,12.9,32,30.21,10.0,Calm,Calm,-,N/A,,Clear,0,2013-05-01 05:55:00
11:55 PM,39.9,15.1,36,30.24,10.0,NNE,3.5,-,N/A,,Clear,20,2013-05-01 06:55:00